SES-12

Last updated on Tue Sep 22 2026 00:03:14 GMT+0000 (Coordinated Universal Time)

1 43488U 18049A 26264.50787743 -.00000273 00000+0 00000+0 0 9991 2 43488 0.0274 52.3448 0001734 183.1306 42.7660 1.00272475 30382
UTC large
Height (km)
Speed (km/s)
/
Latitude / Longitude
Inclination (degrees)
Orbital Period (minutes)
Azimuth
Elevation
Range (km)
Doppler Factor

Next 0 passes for location: London (51.5072 / 0.1276)

No passes found over London.
SES-12